Date,TemperatureHighF,TemperatureAvgF,TemperatureLowF,DewpointHighF,DewpointAvgF,DewpointLowF,HumidityHigh,HumidityAvg,HumidityLow,PressureMaxIn,PressureMinIn,WindSpeedMaxMPH,WindSpeedAvgMPH,GustSpeedMaxMPH,PrecipitationSumIn
2013-2-1,69.6,47.3,39.6,48.7,40.7,36.6,91,79,45,30.18,29.98,4,1,5,0.00
2013-2-2,53.1,44.8,36.7,49.1,40.7,33.5,93,86,66,30.20,30.03,5,0,14,0.00
2013-2-3,53.1,47.9,41.2,44.1,42.4,37.6,90,81,65,30.20,30.07,1,0,3,0.00
2013-2-4,51.4,44.1,36.0,45.8,39.4,32.5,92,84,72,30.08,29.88,7,1,18,0.00
2013-2-5,55.0,48.7,46.0,46.2,43.3,39.4,89,82,69,29.99,29.80,8,2,17,0.00
2013-2-6,53.1,47.0,39.7,44.9,41.2,35.6,90,81,61,30.01,29.76,10,2,22,0.00
2013-2-7,41.9,39.5,36.1,39.7,37.2,32.9,93,91,88,29.95,29.83,3,0,12,0.00
2013-2-8,54.5,40.2,33.1,43.2,35.4,30.5,94,84,55,30.15,29.95,3,0,5,0.00
2013-2-9,56.5,42.2,33.8,40.5,36.0,29.8,92,80,53,30.17,30.13,2,0,5,0.00
2013-2-10,53.8,45.4,38.5,42.5,38.2,34.9,92,77,56,30.17,30.12,3,1,6,0.00
2013-2-11,60.1,46.4,42.8,40.8,36.7,33.7,87,69,45,30.29,30.15,4,1,7,0.00
2013-2-12,55.0,48.1,43.9,49.3,44.4,40.3,91,87,75,30.39,30.29,2,0,4,0.00
2013-2-13,60.1,48.1,41.9,48.4,43.6,39.5,92,85,62,30.37,30.32,2,0,4,0.00
2013-2-14,63.5,48.3,40.3,48.6,42.6,38.1,92,82,52,30.36,30.21,2,0,5,0.00
2013-2-15,69.4,50.8,42.8,46.5,41.8,38.7,91,73,38,30.21,30.05,4,1,8,0.00
2013-2-16,59.9,47.5,42.1,45.4,41.9,38.0,88,81,54,30.19,30.11,2,0,4,0.00
2013-2-17,54.7,42.9,34.3,41.3,35.8,29.1,91,77,49,30.16,29.92,3,0,5,0.00
2013-2-18,50.5,41.0,34.0,42.6,35.1,28.8,91,80,60,29.92,29.57,4,1,16,0.00
2013-2-19,50.5,40.7,36.9,42.0,36.6,33.1,92,86,64,29.88,29.47,3,0,15,0.00
2013-2-20,50.0,41.3,33.8,44.3,36.9,30.4,92,84,62,30.02,29.87,4,0,9,0.00
2013-2-21,49.5,43.1,35.6,44.1,37.9,32.1,93,82,64,30.14,30.02,4,1,9,0.00
2013-2-22,49.1,45.4,41.2,43.3,41.3,38.8,91,86,77,30.10,29.92,9,2,21,0.00
2013-2-23,54.0,42.4,36.3,42.1,36.7,31.4,91,81,53,30.33,30.07,4,0,8,0.00
2013-2-24,51.4,39.3,33.8,36.6,33.1,30.1,90,80,51,30.32,30.20,4,0,9,0.00
2013-2-25,45.5,43.1,40.5,41.9,40.2,38.0,91,90,83,30.22,30.19,2,0,4,0.00